Printer-friendly version

IAU Minor Planet Center

Minor Planet Center

(27) Euterpe

Orbital Elements

The following orbital elements are taken from MPO 4876
   (27) Euterpe
Epoch 2002 May 6.0 TT = JDT 2452400.5                   Goffin
M  75.60847              (2000.0)            P               Q
n   0.27420716     Peri.  356.48199     -0.02264518     -0.99936416
a   2.3464800      Node    94.81425     +0.91792007     -0.03169880
e   0.1719980      Incl.    1.58374     +0.39611860     +0.01632385
P   3.59           H    7.0           G   0.15           U   0
From 1618 observations at 79 oppositions, 1853-2000, mean residual 0".53.
An explanation of the orbital elements is available.

These orbital elements are also available in forms suitable for loading into a number of popular planetarium-type software programs.


Ephemeris

The following ephemeris is at intervals of five days. A daily ephemeris covering the same time interval is also available.

Date    TT    R. A. (2000) Decl.     Delta      r     Elong.  Phase     V
2001 12 12    11 24.09   +05 17.5    1.791    2.049    90.3    28.7    11.1
2001 12 17    11 29.99   +04 45.0    1.741    2.056    93.9    28.5    11.0
2001 12 22    11 35.38   +04 16.0    1.691    2.064    97.5    28.2    11.0
2001 12 27    11 40.23   +03 50.5    1.641    2.072   101.3    27.7    10.9
2002 01 01    11 44.48   +03 29.1    1.592    2.080   105.3    27.1    10.8
2002 01 06    11 48.10   +03 11.9    1.544    2.089   109.5    26.4    10.7
2002 01 11    11 51.03   +02 59.3    1.497    2.097   113.8    25.4    10.7
2002 01 16    11 53.23   +02 51.7    1.452    2.106   118.3    24.3    10.6
2002 01 21    11 54.65   +02 49.2    1.410    2.114   123.1    23.0    10.5
2002 01 26    11 55.26   +02 52.0    1.370    2.123   128.0    21.4    10.4
2002 01 31    11 55.06   +03 00.0    1.333    2.132   133.2    19.7    10.3
2002 02 05    11 54.02   +03 13.3    1.300    2.141   138.6    17.7    10.1
2002 02 10    11 52.15   +03 31.6    1.271    2.150   144.2    15.6    10.0
2002 02 15    11 49.51   +03 54.5    1.247    2.160   150.0    13.2     9.9
2002 02 20    11 46.16   +04 21.3    1.228    2.169   155.9    10.7     9.8
2002 02 25    11 42.23   +04 51.1    1.215    2.178   162.0     8.1     9.7
2002 03 02    11 37.84   +05 22.8    1.208    2.188   168.1     5.4     9.6
2002 03 07    11 33.15   +05 55.3    1.208    2.197   174.0     2.7     9.4
2002 03 12    11 28.33   +06 27.4    1.214    2.207   177.0     1.3     9.3
2002 03 17    11 23.56   +06 57.8    1.227    2.217   172.2     3.5     9.5
2002 03 22    11 19.04   +07 25.5    1.246    2.226   166.2     6.1     9.7
2002 03 27    11 14.92   +07 49.6    1.271    2.236   160.3     8.7     9.9
2002 04 01    11 11.31   +08 09.4    1.303    2.246   154.4    11.1    10.0
2002 04 06    11 08.33   +08 24.6    1.340    2.256   148.8    13.3    10.2
2002 04 11    11 06.02   +08 34.9    1.382    2.265   143.3    15.3    10.3
2002 04 16    11 04.45   +08 40.2    1.428    2.275   138.0    17.2    10.5
2002 04 21    11 03.62   +08 40.7    1.479    2.285   132.9    18.8    10.6
2002 04 26    11 03.52   +08 36.4    1.533    2.295   128.1    20.2    10.7
2002 05 01    11 04.12   +08 27.7    1.591    2.305   123.4    21.4    10.9
2002 05 06    11 05.39   +08 14.9    1.651    2.314   118.9    22.4    11.0
2002 05 11    11 07.28   +07 58.3    1.714    2.324   114.6    23.3    11.1
2002 05 16    11 09.76   +07 38.0    1.779    2.334   110.5    23.9    11.2
2002 05 21    11 12.78   +07 14.5    1.845    2.343   106.6    24.5    11.3
2002 05 26    11 16.28   +06 47.9    1.913    2.353   102.7    24.8    11.4
2002 05 31    11 20.22   +06 18.7    1.981    2.363    99.0    25.1    11.5
2002 06 05    11 24.57   +05 46.9    2.050    2.372    95.4    25.2    11.6

Back to Bright Minor Planets

Astronomical Headlines Index


Valid HTML 4.01!